Regional Weather Roundup
Issued by NWS

Home | Current Version | Previous Version | Graphics & Text | Print | Product List | Glossary On
Versions: 1 2 3 4 5 6 7 8 9 10 11 12 13 14 15 16 17 18 19 20 21 22 23 24 25 26 27 28 29 30 31 32 33 34 35 36 37 38 39 40 41 42 43 44 45 46 47 48 49 50
000
ASUS43 KFSD 302202
RWRSD

WEATHER ROUNDUP FOR SOUTH DAKOTA
NATIONAL WEATHER SERVICE SIOUX FALLS SD
500 PM CDT THU JUL 30 2015

NOTE: "FAIR" INDICATES FEW OR NO CLOUDS BELOW 12,000 FEET WITH NO
SIGNIFICANT WEATHER AND/OR OBSTRUCTIONS TO VISIBILITY.


SDZ001>005-009-010-012>017-302300-
NORTHWEST AND NORTH CENTRAL SOUTH DAKOTA

CITY           SKY/WX    TMP DP  RH WIND       PRES   REMARKS
BUFFALO          N/A     88  38  17 NW12      30.13F
FAITH            N/A     90  37  15 W10       30.16F
MOBRIDGE       SUNNY     89  51  27 N13G23    30.09F
$$

SDZ012>016-024>037-041>051-057-063-072>074-302300-
SOUTHWEST AND SOUTH CENTRAL SOUTH DAKOTA

CITY           SKY/WX    TMP DP  RH WIND       PRES   REMARKS
RAPID CTY ARPT SUNNY     87  46  24 N6        30.22F
PIERRE         SUNNY     91  43  18 W6        30.11F
CUSTER         MOSUNNY   76  44  32 E16       30.36F
ELLSWORTH AFB  SUNNY     87  43  21 MISG      30.21F
PHILIP         SUNNY     90  45  21 N5        30.16F
PINE RIDGE     SUNNY     88  45  22 VRB3      30.23F
WINNER         FAIR      92  48  22 NW8       30.15F
$$

SDZ004>011-016>023-039-040-302300-
NORTHEAST SOUTH DAKOTA

CITY           SKY/WX    TMP DP  RH WIND       PRES   REMARKS
ABERDEEN       SUNNY     88  52  29 NW16      30.08F
WATERTOWN      SUNNY     85  55  35 W13       30.10F
BROOKINGS      SUNNY     84  55  37 W10       30.13F
SISSETON         N/A     84  60  44 NW15      30.04F
$$

SDZ017-020-022-023-036>040-048>070-302300-
SOUTHEAST SOUTH DAKOTA

CITY           SKY/WX    TMP DP  RH WIND       PRES   REMARKS
SIOUX FALLS    MOSUNNY   86  57  37 NW6       30.12F
HURON          SUNNY     88  55  32 W10       30.09F
CHAMBERLAIN    SUNNY     88  48  25 SE3       30.13F
MITCHELL       SUNNY     89  57  33 CALM      30.11F
YANKTON        SUNNY     88  63  42 W7        30.09F
$$

ABBREVIATIONS USED IN REMARKS
   TC - TEMPERATURE IN CELSIUS
  WCI - WIND CHILL INDEX
   HX - HEAT INDEX
  VSB - VISIBILITY



USA.gov is the U.S. government's official web portal to all federal, state and local government web resources and services.